Location: Camp at the Woods
(43.2055°N, 93.0905°W)
Time: 02:00:17
(UTC+00:00)

Cosmos 2227 Rocket - Pass Details

Date: 27 May 2025
Orbit: 837 x 844 km, 71.0° (Epoch: 12 June)

Event Time Altitude Azimuth Distance (km) Brightness Sun altitude
Exits shadow 07:34:36 50° 218° (SW) 1,056 2.3 -22.5°
Maximum altitude 07:36:06 79° 295° (WNW) 857 2.1 -22.4°
Drops below altitude 10° 07:41:46 10° 23° (NNE) 2,464 5.8 -22.0°
Sets 07:44:14 0° 24° (NNE) 3,404 6.9 -21.9°
